Location: Fort Wayne
(41.1310°N, 85.1290°W)
Time: 22:52:38
(UTC-05:00)

Courier 1B Rocket - All Passes

Search period start: 23 February 2017 00:00
Search period end: 05 March 2017 00:00
Orbit: 920 x 1202 km, 28.2° (Epoch: 23 February)

Date Brightness Start Highest point End Pass type
(mag) Time Alt. Az. Time Alt. Az. Time Alt. Az.
23 Feb - 13:39:50 10° S 13:43:37 14° SSE 13:47:23 10° SE daylight
23 Feb - 15:30:08 10° SW 15:36:19 26° SSE 15:42:18 10° ESE daylight
23 Feb - 17:22:48 10° WSW 17:29:11 30° S 17:35:14 10° SE daylight
23 Feb - 19:16:43 10° WSW 19:21:51 20° SSW 19:26:45 10° SSE visible
24 Feb - 14:29:34 10° SSW 14:35:23 23° SSE 14:41:05 10° ESE daylight
24 Feb - 16:21:42 10° SW 16:28:14 30° S 16:34:31 10° ESE daylight
24 Feb - 18:15:10 10° WSW 18:21:02 25° SSW 18:26:38 10° SE daylight
24 Feb - 20:11:07 10° SW 20:13:28 12° SSW 20:15:46 10° S visible
25 Feb - 13:29:20 10° SSW 13:34:28 19° SSE 13:39:33 10° ESE daylight
25 Feb - 15:20:45 10° SW 15:27:16 29° S 15:33:36 10° ESE daylight
25 Feb - 17:13:49 10° WSW 17:20:09 28° S 17:26:12 10° SE daylight
25 Feb - 19:08:23 10° WSW 19:12:45 17° SSW 19:16:57 10° SSE visible
26 Feb - 12:29:41 10° S 12:33:36 15° SSE 12:37:30 10° SE daylight
26 Feb - 14:19:59 10° SW 14:26:17 27° SSE 14:32:30 10° ESE daylight
26 Feb - 16:12:37 10° WSW 16:19:11 30° S 16:25:34 10° SE daylight
26 Feb - 18:06:30 10° WSW 18:11:57 21° SSW 18:17:11 10° SSE daylight
27 Feb - 11:32:34 10° SSE 11:32:47 10° SSE 11:33:01 10° SSE daylight
27 Feb - 13:19:28 10° SSW 13:25:20 23° SSE 13:31:11 10° ESE daylight
27 Feb - 15:11:33 10° WSW 15:18:12 31° S 15:24:44 10° ESE daylight
27 Feb - 17:04:58 10° WSW 17:11:04 26° SSW 17:16:58 10° SE daylight
27 Feb - 19:00:43 10° SW 19:03:35 12° SSW 19:06:24 10° S visible
28 Feb - 12:19:19 10° SSW 12:24:25 19° SSE 12:29:35 10° ESE daylight
28 Feb - 14:10:39 10° SW 14:17:12 30° S 14:23:44 10° ESE daylight
28 Feb - 16:03:39 10° WSW 16:10:08 29° S 16:16:28 10° SE daylight
28 Feb - 17:58:09 10° WSW 18:02:49 17° SSW 18:07:21 10° SSE daylight
01 Mar - 11:19:46 10° S 11:23:35 14° SSE 11:27:26 10° SE daylight
01 Mar - 13:09:58 10° SW 13:16:13 27° SSE 13:22:32 10° ESE daylight
01 Mar - 15:02:30 10° WSW 15:09:09 31° S 15:15:43 10° SE daylight
01 Mar - 16:56:19 10° WSW 17:01:58 22° SSW 17:07:28 10° SSE daylight
02 Mar - 12:09:32 10° SSW 12:15:17 23° SSE 12:21:09 10° ESE daylight
02 Mar - 14:01:31 10° WSW 14:08:08 31° S 14:14:48 10° ESE daylight
02 Mar - 15:54:51 10° WSW 16:01:03 26° SSW 16:07:09 10° SE daylight
02 Mar - 17:50:26 10° SW 17:53:38 13° SSW 17:56:47 10° S daylight
03 Mar - 11:09:30 10° SSW 11:14:24 19° SSE 11:19:27 10° ESE daylight
03 Mar - 13:00:42 10° SW 13:07:08 30° S 13:13:42 10° ESE daylight
03 Mar - 14:53:35 10° WSW 15:00:05 29° S 15:06:33 10° SE daylight
03 Mar - 16:47:59 10° WSW 16:52:49 18° SSW 16:57:34 10° SSE daylight
04 Mar - 10:10:04 10° S 10:13:37 14° SSE 10:17:13 10° SE daylight
04 Mar - 12:00:07 10° SW 12:06:11 27° SSE 12:12:26 10° ESE daylight
04 Mar - 13:52:32 10° WSW 13:59:04 31° S 14:05:43 10° SE daylight
04 Mar - 15:46:14 10° WSW 15:51:55 22° SSW 15:57:34 10° SSE daylight
